Asau, Samoa

5:36 AM +14 on November 25, 2017 (GMT +1400)
Faleolo International | | Change Station

Elev 16 ft 13.82 °S, 172.00 °W | Updated 1 hour ago

Light Drizzle
Light Drizzle
73 °F
Feels Like 73 °F
N
4
Wind Variable Wind from East

Today
High -- | Low -- °F
--% Chance of Precip.
Yesterday
High -- | Low -- °F
Precip. -- in
Pressure 29.71 in
Visibility 6.2 miles
Clouds Few 1900 ft
Scattered Clouds 4000 ft
Overcast 12000 ft
Dew Point 72 °F
Humidity 94%
Rainfall 0.00 in
Snow Depth Not available.
6:52 AM 7:42 PM
Waxing Crescent, 31% visible
METAR NSFA 241400Z 10003KT 9999 -DZ FEW019 SCT040 OVC120 23/22 Q1006 NOSIG
Pressure 29.71 in
Visibility 6.2 miles
Clouds Few 1900 ft
Scattered Clouds 4000 ft
Overcast 12000 ft
Dew Point 72 °F
Humidity 94%
Rainfall 0.00 in
Snow Depth Not available.
6:52 AM 7:42 PM
Waxing Crescent, 31% visible
METAR NSFA 241400Z 10003KT 9999 -DZ FEW019 SCT040 OVC120 23/22 Q1006 NOSIG

Get Severe Weather Alerts

Thanks for signing up!

Be on the lookout for a verification email in your inbox.

You'll start receiving the daily forecast at 6 AM.

×

10-Day Weather Forecast

×

Almanac

Astronomy

Nov. 25, 2017 Rise Set
Actual Time
Civil Twilight
Nautical Twilight
Astronomical Twilight
Moon
Length of Visible Light
Length of Day
Tomorrow will be .
, % of the Moon is Illuminated

Today's Extremes

Country Highs Country Lows

Community

WunderPhotos

Category 6

Welcome to Category 6. This is the collective home for Weather Underground's featured writeups by Dr. Jeff Masters (right), Bob Henson (left), Chris Burt, and other regular contributors.

Nearby

Air Quality

  Air Quality AQ Index Pollutant
Not available.

Snow Depth

Station Depth Elevation

Earthquake Activity

City Distance Mag. Time & Date
Minimum magnitude displayed is 2.5.

Coastal Water Temperatures

Place Temperature

Stations

Nearby Weather Stations

Station Location Temp. Windchill Dew Point Humidity Wind Precip. Elev Updated Type